[[{"header":{"parameterUnit":"m.s-1","parameterCategory":1,"la1":30.2991,"la2":30.254,"lo1":-89.0895,"lo2":-89.0444,"dy":0.0017,"dx":0.0017,"nx":28,"ny":28,"refTime":"2024-10-21T03:00:00:Z","depth":0,"parameterNumber":2,"parameterNumberName":"U-component_of_WINDS"},"data":[0,0,0,0,0,0,0,0,0,0,0,0,0,0,0,0,0,0,0,0,0,0,0,0,0,0,0,0,0,0,0,0,0,0,0,0,0,0,0,0,0,0,0,0,0,0,0,0,0,0,0,0,0,0,0,0,0,0,-1.4986,-1.4986,0,-1.4966,-1.4966,-1.4966,-1.4894,-1.4892,-1.4891,-1.4889,-1.4871,-1.4872,-1.4873,0,0,0,0,0,0,0,0,0,0,0,0,0,-1.4966,-1.4966,-1.4986,-1.4986,-1.4986,-1.4966,-1.4966,-1.4966,-1.4894,-1.4892,-1.489,-1.4888,-1.4871,-1.4872,-1.4873,0,0,0,0,0,0,0,0,0,0,0,0,0,-1.4963,-1.4967,-1.4986,-1.4948,-1.4944,-1.4966,-1.4966,-1.4966,-1.4894,-1.4892,-1.489,-1.4887,-1.487,-1.4872,-1.4873,-1.4932,0,0,-1.4878,-1.4879,0,0,0,0,0,0,0,0,-1.4963,-1.4964,-1.4954,-1.495,-1.4946,-1.493,-1.4952,-1.4955,-1.4895,-1.4913,-1.4889,-1.4886,-1.4893,-1.4892,-1.4894,-1.4932,-1.4931,-1.4878,-1.4879,-1.488,-1.4881,0,0,0,0,0,0,0,-1.4964,-1.4964,-1.4978,-1.4954,-1.4949,-1.4932,-1.4929,-1.4952,-1.4917,-1.4912,-1.4906,-1.4905,-1.489,-1.4893,-1.4893,-1.4931,-1.4878,-1.488,-1.4881,-1.4881,-1.5017,-1.502,0,0,0,0,0,0,-1.4969,-1.4965,-1.4979,-1.4978,-1.4949,-1.4935,-1.4931,-1.4938,-1.4917,-1.4911,-1.4907,-1.4902,-1.4891,-1.4891,-1.4892,-1.4961,-1.488,-1.4882,-1.4882,-1.5015,-1.5018,-1.5021,0,0,0,0,0,0,-1.4969,-1.4971,-1.498,-1.497,-1.497,-1.4938,-1.4946,-1.4939,-1.4941,-1.4913,-1.4907,-1.4916,-1.4889,-1.489,-1.4923,-1.496,-1.4882,-1.4884,-1.5011,-1.5016,-1.5019,-1.5099,0,0,0,0,0,0,-1.4968,-1.4971,-1.4992,-1.4971,-1.4971,-1.501,-1.4948,-1.494,-1.4944,-1.4936,-1.492,-1.4915,-1.4888,-1.4921,-1.4925,-1.496,-1.4885,-1.5008,-1.5013,-1.5018,-1.5093,-1.5105,-1.5116,0,0,0,0,0,-1.4968,-1.5016,-1.4994,-1.4996,-1.4996,-1.5013,-1.5012,-1.498,-1.4947,-1.4969,-1.4951,-1.4915,-1.4955,-1.4925,-1.4929,-1.4965,-1.5006,-1.5012,-1.5018,-1.5088,-1.5103,-1.5115,0,0,0,0,0,0,-1.5043,-1.5012,-1.4988,-1.503,-1.5024,-1.5,-1.5027,-1.4996,-1.5,-1.4994,-1.4953,-1.495,-1.499,-1.498,-1.4948,-1.5022,-1.4974,-1.4981,-1.5027,-1.5041,-1.5052,-1.5054,-1.4886,0,0,0,0,0,-1.5065,-1.5079,-1.5052,-1.5092,-1.509,-1.5059,-1.5065,-1.504,-1.5033,-1.5031,-1.5015,-1.5011,-1.5022,-1.5031,-1.504,-1.5091,-1.5087,-1.5118,-1.5129,-1.5139,-1.5146,-1.5174,-1.5188,-1.504,-1.504,-1.504,0,0,-1.5109,-1.5094,-1.5106,-1.5107,-1.5099,-1.5117,-1.5058,-1.5078,-1.5091,-1.5034,-1.5064,-1.5053,-1.5046,-1.5089,-1.5107,-1.5082,-1.5186,-1.5146,-1.5154,-1.5156,-1.5182,-1.5196,-1.5208,-1.5044,-1.5044,-1.5043,0,0,-1.52,-1.5189,-1.5222,-1.5216,-1.5206,-1.5185,-1.5193,-1.5174,-1.5164,-1.5194,-1.5151,-1.5167,-1.5187,-1.5184,-1.5185,-1.5275,-1.5243,-1.5279,-1.5339,-1.5367,-1.5379,-1.5389,-1.5423,-1.5435,-1.5286,-1.5286,-1.5286,0,-1.5257,-1.528,-1.5243,-1.5267,-1.5269,-1.5217,-1.5251,-1.5247,-1.5241,-1.5244,-1.5216,-1.5242,-1.5233,-1.5275,-1.5297,-1.5299,-1.5308,-1.5281,-1.538,-1.5389,-1.5398,-1.543,-1.5443,-1.5291,-1.529,-1.529,-1.5289,0,-1.5352,-1.5369,-1.5397,-1.5392,-1.5397,-1.5426,-1.5394,-1.5404,-1.5379,-1.5361,-1.5393,-1.5381,-1.5387,-1.5395,-1.5371,-1.5435,-1.542,-1.5387,-1.5338,-1.5418,-1.5447,-1.5459,-1.5297,-1.5295,-1.5294,-1.5293,0,0,-1.5489,-1.5463,-1.5474,-1.5472,-1.5457,-1.547,-1.5497,-1.5503,-1.5513,-1.551,-1.5533,-1.5552,-1.5521,-1.5523,-1.5497,-1.5522,-1.5597,-1.5486,-1.5485,-1.5508,-1.5668,-1.5695,-1.5709,-1.5575,-1.5577,-1.5579,-1.5669,0,-1.5576,-1.562,-1.5588,-1.5638,-1.5654,-1.5606,-1.563,-1.5624,-1.5609,-1.5621,-1.5604,-1.5619,-1.5576,-1.5577,-1.5599,-1.5583,-1.5628,-1.5576,-1.5597,-1.5599,-1.5602,-1.5724,-1.5752,-1.5838,-1.5681,-1.5682,-1.5684,0,-1.5684,-1.5686,-1.5738,-1.5721,-1.5726,-1.5748,-1.5751,-1.5763,-1.5756,-1.5744,-1.5746,-1.5715,-1.5741,-1.5693,-1.573,-1.5695,-1.5702,-1.5696,-1.5698,-1.57,-1.5647,-1.5731,-1.5864,-1.5878,-1.5701,-1.57,-1.5699,0,-1.5781,-1.5797,-1.583,-1.5829,-1.581,-1.5827,-1.5819,-1.581,-1.5816,-1.5819,-1.5822,-1.5829,-1.5833,-1.5839,-1.5812,-1.5778,-1.5853,-1.5802,-1.5845,-1.5846,-1.5864,-1.5863,-1.6002,-1.5866,-1.5866,-1.5866,-1.5865,0,-1.5882,-1.5916,-1.5873,-1.5894,-1.5931,-1.5894,-1.5932,-1.592,-1.5913,-1.5931,-1.5889,-1.5908,-1.5869,-1.5884,-1.5863,-1.5898,-1.59,-1.5892,-1.5886,-1.5896,-1.5898,-1.5901,-1.5895,-1.5869,-1.5868,-1.5868,-1.5867,0,-1.5997,-1.597,-1.6003,-1.5982,-1.5978,-1.6006,-1.5989,-1.6008,-1.599,-1.6014,-1.6017,-1.599,-1.6005,-1.5978,-1.599,-1.5976,-1.6026,-1.601,-1.6028,-1.6024,-1.6069,-1.6066,-1.6216,-1.6234,-1.6085,-1.6087,-1.6088,0,-1.6065,-1.609,-1.6071,-1.6081,-1.6076,-1.6091,-1.6096,-1.6061,-1.6069,-1.6064,-1.6084,-1.6096,-1.6104,-1.6132,-1.6113,-1.6123,-1.6108,-1.616,-1.6109,-1.612,-1.6111,-1.6111,-1.6114,-1.6171,-1.6173,-1.6174,-1.6175,0,-1.6187,-1.6173,-1.6182,-1.6188,-1.6195,-1.6198,-1.6198,-1.6208,-1.6171,-1.6182,-1.6197,-1.6203,-1.6216,-1.6229,-1.6235,-1.6228,-1.6197,-1.6191,-1.6202,-1.6214,-1.6224,-1.6221,-1.6058,-1.6188,-1.6187,-1.6186,-1.6185,-1.6185,-1.6282,-1.6302,-1.6293,-1.6305,-1.6301,-1.6302,-1.6319,-1.6304,-1.6315,-1.6322,-1.6301,-1.6322,-1.6316,-1.632,-1.6317,-1.6334,-1.6311,-1.6326,-1.633,-1.6335,-1.6343,-1.622,-1.6334,-1.6334,-1.6334,-1.6333,-1.6333,0,-1.6404,-1.6395,-1.6407,-1.6408,-1.6418,-1.6386,-1.6384,-1.6396,-1.6414,-1.641,-1.6419,-1.6438,-1.645,-1.6433,-1.6443,-1.646,-1.6446,-1.6464,-1.6464,-1.6463,-1.6362,-1.6352,-1.6476,-1.6476,-1.6476,-1.6476,-1.6476,-1.6476,-1.6468,-1.6502,-1.6487,-1.6518,-1.651,-1.6529,-1.6531,-1.6533,-1.653,-1.6552,-1.6562,-1.6551,-1.6542,-1.6552,-1.6563,-1.6558,-1.6564,-1.6588,-1.6578,-1.6484,-1.647,-1.6457,-1.6448,-1.6589,-1.6589,-1.6678,-1.6679,-1.6679]},{"header":{"parameterUnit":"m.s-1","parameterCategory":1,"la1":30.2991,"la2":30.254,"lo1":-89.0895,"lo2":-89.0444,"dy":0.0017,"dx":0.0017,"nx":28,"ny":28,"refTime":"2024-10-21T03:00:00:Z","depth":0,"parameterNumber":3,"parameterNumberName":"V-component_of_WINDS"},"data":[0,0,0,0,0,0,0,0,0,0,0,0,0,0,0,0,0,0,0,0,0,0,0,0,0,0,0,0,0,0,0,0,0,0,0,0,0,0,0,0,0,0,0,0,0,0,0,0,0,0,0,0,0,0,0,0,0,0,-0.1911,-0.1911,0,-0.19,-0.19,-0.19,-0.1817,-0.1815,-0.1813,-0.1811,-0.1803,-0.1805,-0.1806,0,0,0,0,0,0,0,0,0,0,0,0,0,-0.1864,-0.1865,-0.1911,-0.1911,-0.1911,-0.19,-0.19,-0.19,-0.1818,-0.1815,-0.1813,-0.181,-0.1802,-0.1804,-0.1806,0,0,0,0,0,0,0,0,0,0,0,0,0,-0.1872,-0.1865,-0.1911,-0.1868,-0.1864,-0.19,-0.19,-0.19,-0.1818,-0.1815,-0.1812,-0.1809,-0.1802,-0.1804,-0.1807,-0.1883,0,0,-0.1814,-0.1815,0,0,0,0,0,0,0,0,-0.1871,-0.1874,-0.1875,-0.1871,-0.1867,-0.1857,-0.188,-0.1894,-0.1819,-0.1836,-0.1811,-0.1808,-0.1824,-0.1824,-0.1829,-0.1883,-0.1882,-0.1815,-0.1816,-0.1817,-0.1818,0,0,0,0,0,0,0,-0.1871,-0.1874,-0.1907,-0.1875,-0.187,-0.1851,-0.1849,-0.1882,-0.1847,-0.1834,-0.1828,-0.1828,-0.1821,-0.1827,-0.1828,-0.1882,-0.1814,-0.1817,-0.1818,-0.1819,-0.2001,-0.2004,0,0,0,0,0,0,-0.1876,-0.1874,-0.1907,-0.1906,-0.1862,-0.1854,-0.1852,-0.1863,-0.1846,-0.1841,-0.183,-0.1824,-0.1824,-0.1825,-0.1827,-0.1918,-0.1817,-0.1819,-0.1821,-0.1998,-0.2002,-0.2005,0,0,0,0,0,0,-0.1875,-0.188,-0.1907,-0.1888,-0.189,-0.1858,-0.1872,-0.1865,-0.187,-0.1843,-0.1837,-0.1843,-0.1821,-0.1824,-0.187,-0.1916,-0.1821,-0.1823,-0.1994,-0.1999,-0.2003,-0.2098,0,0,0,0,0,0,-0.1874,-0.188,-0.1908,-0.189,-0.1892,-0.195,-0.1875,-0.1867,-0.1874,-0.1866,-0.1853,-0.1848,-0.1819,-0.1867,-0.1873,-0.1918,-0.1825,-0.199,-0.1996,-0.2002,-0.2091,-0.2106,-0.2119,0,0,0,0,0,-0.1873,-0.1935,-0.191,-0.1914,-0.1926,-0.1953,-0.1954,-0.1918,-0.1878,-0.1907,-0.189,-0.1849,-0.191,-0.1872,-0.1878,-0.1925,-0.1986,-0.1994,-0.2001,-0.2085,-0.2103,-0.2118,0,0,0,0,0,0,-0.1961,-0.1932,-0.1904,-0.1961,-0.196,-0.1939,-0.1974,-0.1938,-0.1949,-0.1941,-0.1897,-0.1895,-0.1949,-0.1941,-0.19,-0.1999,-0.1941,-0.195,-0.2003,-0.202,-0.2033,-0.2035,-0.1827,0,0,0,0,0,-0.1987,-0.201,-0.1984,-0.2037,-0.2038,-0.2006,-0.2016,-0.1989,-0.1986,-0.1986,-0.1972,-0.1971,-0.1991,-0.2004,-0.202,-0.2089,-0.2086,-0.2124,-0.2138,-0.2149,-0.2158,-0.2196,-0.2214,-0.203,-0.203,-0.203,0,0,-0.2041,-0.2028,-0.2045,-0.2055,-0.205,-0.2077,-0.2006,-0.2037,-0.2056,-0.199,-0.2034,-0.2024,-0.202,-0.2079,-0.2104,-0.2074,-0.2208,-0.2159,-0.2168,-0.2171,-0.2206,-0.2223,-0.2239,-0.2035,-0.2034,-0.2033,0,0,-0.2154,-0.2145,-0.219,-0.2187,-0.2181,-0.216,-0.2171,-0.2155,-0.2145,-0.2188,-0.214,-0.2163,-0.2196,-0.2196,-0.2201,-0.2315,-0.2278,-0.2321,-0.2394,-0.2432,-0.2446,-0.2459,-0.2502,-0.2518,-0.233,-0.233,-0.233,0,-0.2222,-0.2259,-0.2218,-0.2252,-0.2259,-0.2199,-0.2245,-0.2245,-0.2245,-0.2251,-0.2218,-0.2259,-0.2253,-0.2312,-0.234,-0.2344,-0.2357,-0.2323,-0.2447,-0.246,-0.2471,-0.2512,-0.2528,-0.2335,-0.2335,-0.2334,-0.2334,0,-0.2345,-0.2371,-0.2408,-0.241,-0.242,-0.246,-0.2427,-0.2442,-0.2414,-0.2397,-0.2442,-0.2432,-0.2446,-0.2457,-0.243,-0.2513,-0.2495,-0.2455,-0.2396,-0.2495,-0.2532,-0.2547,-0.2343,-0.2341,-0.234,-0.2338,0,0,-0.2514,-0.2492,-0.2507,-0.2507,-0.2497,-0.2517,-0.2555,-0.2568,-0.2583,-0.2585,-0.2617,-0.2647,-0.2611,-0.2616,-0.2588,-0.2621,-0.2715,-0.2577,-0.2576,-0.2605,-0.2808,-0.284,-0.2859,-0.2689,-0.2692,-0.2694,-0.2809,0,-0.2624,-0.2687,-0.2652,-0.2721,-0.2746,-0.269,-0.2723,-0.2721,-0.2706,-0.2725,-0.2708,-0.2731,-0.268,-0.2683,-0.2713,-0.2697,-0.2755,-0.2688,-0.2721,-0.2723,-0.2726,-0.2878,-0.2911,-0.302,-0.2823,-0.2826,-0.2827,0,-0.2762,-0.277,-0.2841,-0.2827,-0.2836,-0.2867,-0.2876,-0.2895,-0.2892,-0.2879,-0.2885,-0.285,-0.2888,-0.2828,-0.2881,-0.2836,-0.2847,-0.2841,-0.2845,-0.2848,-0.2783,-0.2888,-0.3054,-0.3072,-0.285,-0.2848,-0.2846,0,-0.2881,-0.2909,-0.2956,-0.2958,-0.2942,-0.2965,-0.296,-0.2954,-0.2964,-0.2973,-0.298,-0.2993,-0.3001,-0.3013,-0.2982,-0.2941,-0.304,-0.2977,-0.3032,-0.3033,-0.3057,-0.3057,-0.323,-0.3061,-0.306,-0.306,-0.306,0,-0.301,-0.3056,-0.301,-0.3039,-0.309,-0.3049,-0.3101,-0.3089,-0.3084,-0.3111,-0.3063,-0.309,-0.3047,-0.307,-0.3046,-0.3095,-0.3098,-0.309,-0.3084,-0.3096,-0.3097,-0.3104,-0.3097,-0.3064,-0.3063,-0.3063,-0.3062,0,-0.3153,-0.3123,-0.3171,-0.3152,-0.3148,-0.3187,-0.3171,-0.3198,-0.3179,-0.3214,-0.322,-0.3191,-0.3215,-0.3186,-0.3207,-0.3191,-0.3258,-0.3239,-0.326,-0.3255,-0.3313,-0.3309,-0.3499,-0.3523,-0.3336,-0.3338,-0.3339,0,-0.3238,-0.3272,-0.3257,-0.3271,-0.3269,-0.3292,-0.3303,-0.3264,-0.3277,-0.3277,-0.3304,-0.3324,-0.3339,-0.338,-0.3362,-0.3379,-0.3362,-0.3427,-0.3364,-0.3376,-0.3366,-0.3365,-0.337,-0.3441,-0.3443,-0.3445,-0.3447,0,-0.3393,-0.3377,-0.3394,-0.3406,-0.342,-0.3427,-0.3432,-0.3446,-0.3406,-0.3423,-0.3447,-0.3458,-0.3481,-0.3502,-0.3514,-0.3509,-0.3473,-0.3466,-0.348,-0.3494,-0.3506,-0.3503,-0.3298,-0.3463,-0.3461,-0.346,-0.3459,-0.3458,-0.3512,-0.354,-0.3535,-0.3555,-0.3554,-0.3559,-0.3584,-0.3568,-0.3587,-0.3602,-0.3578,-0.3609,-0.3606,-0.3618,-0.3618,-0.3643,-0.3615,-0.3635,-0.364,-0.3646,-0.3656,-0.35,-0.3645,-0.3644,-0.3644,-0.3643,-0.3643,0,-0.3667,-0.366,-0.3679,-0.3687,-0.3704,-0.3665,-0.3668,-0.3685,-0.3713,-0.3713,-0.3728,-0.3757,-0.3777,-0.3761,-0.3778,-0.3801,-0.3785,-0.3808,-0.3807,-0.3807,-0.3679,-0.3666,-0.3821,-0.3821,-0.3821,-0.3821,-0.382,-0.382,-0.375,-0.3797,-0.378,-0.3827,-0.382,-0.385,-0.3855,-0.3861,-0.386,-0.3895,-0.3911,-0.39,-0.3894,-0.3911,-0.3929,-0.3923,-0.3933,-0.3962,-0.3952,-0.3833,-0.3816,-0.3799,-0.3787,-0.3964,-0.3964,-0.4077,-0.4079,-0.4079]}]]